Regional Weather Roundup
Issued by NWS

Home | Current Version | Previous Version | Text Only | Print | Product List | Glossary Off
Versions: 1 2 3 4 5 6 7 8 9 10 11 12 13 14 15 16 17 18 19 20 21 22 23 24 25 26 27

000
ASUS45 KSLC 221210
RWRUT

UTAH REGIONAL WEATHER ROUNDUP
NATIONAL WEATHER SERVICE SALT LAKE CITY UT
600 AM MDT TUE APR 22 2014

UTZ001>011-023>025-221300-

NORTHERN UTAH

CITY           SKY/WX    TMP DP  RH WIND       PRES   REMARKS
HILL AFB       CLOUDY    61  33  34 S9        29.80F
LOGAN          CLOUDY    54  37  52 S13       29.82F
OGDEN          CLOUDY    63  33  32 S8        29.78F
PROVO AIRPORT  CLOUDY    59  36  41 SE14      29.86F
SALT LAKE CITY CLOUDY    68  30  24 S17       29.79F
VERNAL         MOCLDY    48  34  58 NW3       29.94F
WENDOVER       CLOUDY    54  27  35 CALM      29.76F
HEBER CITY     CLOUDY    46  34  61 CALM      29.89F
WEST JORDAN    PTCLDY    63  37  39 S15       29.83F

$$

UTZ012>022-026-027-221300-

SOUTHERN UTAH

CITY           SKY/WX    TMP DP  RH WIND       PRES   REMARKS
BRYCE CANYON   CLOUDY    43  29  57 SW7       30.09F
CEDAR CITY     PTCLDY    52  27  38 CALM      29.94S
MILFORD        MOCLDY    54  29  38 S14       29.88F
MOAB/CYNLANDS  PTCLDY    60  28  29 SE9       29.90F
PRICE          CLOUDY    51  31  46 E5        29.97F
ST GEORGE      CLOUDY    68  28  22 SE14      29.86F
KANAB            N/A     43  28  56 NE6       30.02S

$$

REGIONAL REPORTS     COLORADO/ARIZONA

CITY           SKY/WX    TMP DP  RH WIND       PRES   REMARKS
CRAIG, CO      CLOUDY    40  32  73 CALM      30.02F
GRAND JUNCTION PTCLDY    53  29  39 E18       29.96F
RIFLE          CLOUDY    42  30  62 CALM      30.04F
MONTROSE       CLEAR     45  30  55 SW3       30.07F
CORTEZ         MOCLDY    40  29  64 NW5       30.10S
PAGE, AZ       MOCLDY    61  32  33 S3        29.94S
GRAND CANYON   PTCLDY    31  26  82 CALM      30.10F
KINGMAN        CLOUDY    66  31  27 S9        29.90F
FLAGSTAFF      PTCLDY    36  27  69 SW3       30.12F

$$

REGIONAL REPORTS    NEVADA/IDAHO/WYOMING

CITY           SKY/WX    TMP DP  RH WIND       PRES   REMARKS
LAS VEGAS, NV  CLOUDY    75  21  13 S16       29.74F
ELY            CLOUDY    58  24  27 SE22G39   29.84F
ELKO           MOCLDY    41  26  55 CALM      29.75F
POCATELLO, ID  CLOUDY    59  38  45 E7        29.78F
BURLEY         CLOUDY    55  38  52 NE10      29.73F
EVANSTON, WY     N/A     52  27  38 CALM      29.96F
ROCK SPRINGS   CLOUDY    51  28  41 SW6       29.96F

$$



USA.gov is the U.S. government's official web portal to all federal, state and local government web resources and services.